Location: *
(32.8140°S, 174.6161°E)
Time: 06:35:10
(UTC+00:00)

IDEFIX/ARIANE 42P - Pass Details

Date: 10 December 2019
Orbit: 786 x 802 km, 98.3° (Epoch: 17 January)

Event Time Altitude Azimuth Distance (km) Brightness Sun altitude
Exits shadow 15:20:51 16° 8° (N) 1,969 4.3 -18.7°
Maximum altitude 15:25:04 79° 282° (WNW) 825 2.5 -18.1°
Drops below altitude 10° 15:30:24 10° 195° (SSW) 2,405 5.4 -17.2°
Sets 15:32:46 0° 194° (SSW) 3,344 6.2 -16.9°
